Miscellaneous Local Product
Issued by NWS Hastings, NE

Home | Current Version | Previous Version | Text Only | Print | Product List | Glossary Off
Versions: 1 2 3 4 5 6 7 8 9 10 11 12 13 14 15 16 17 18 19 20 21 22 23 24 25 26 27 28 29 30 31 32 33 34 35 36 37 38 39 40 41 42 43 44 45 46 47 48 49 50

953
AXUS43 KGID 012302
MISGRI

GID CWA HOURLY WEATHER ROUNDUP
NATIONAL WEATHER SERVICE HASTINGS NE
500 PM CST THU DEC 01 2016

NOTE: "FAIR" INDICATES FEW OR NO CLOUDS BELOW 12,000 FEET WITH NO
SIGNIFICANT WEATHER AND/OR OBSTRUCTIONS TO VISIBILITY.

...SOUTH CENTRAL NEBRASKA...

CITY           SKY/WX    TMP DP  RH WIND       PRES   REMARKS
GRAND ISLAND   CLOUDY    37  25  61 N6        29.99R WCI  32
HASTINGS       CLEAR     40  22  48 CALM      29.99S
KEARNEY        CLEAR     41  19  42 CALM      29.97S
ORD            CLOUDY    36  22  56 NE7       29.97R WCI  30
YORK           CLOUDY    37  25  60 CALM      30.00S
AURORA         CLOUDY    37  25  62 CALM      29.99S
LEXINGTON      CLEAR     39  19  43 CALM      29.96S
HOLDREGE       CLEAR     38  20  47 S5        29.97S WCI  35
HEBRON         PTCLDY    41  22  46 CALM      30.00S

...NEBRASKA PANHANDLE...

CITY           SKY/WX    TMP DP  RH WIND       PRES   REMARKS
CHADRON        CLOUDY    37  19  48 NW9       29.95R WCI  30
ALLIANCE       CLOUDY    38  15  39 NW6       29.93R WCI  33
SCOTTSBLUFF    PTCLDY    37  12  35 NW5       29.94R WCI  33
SIDNEY         CLEAR     37  13  37 N8        29.94R WCI  31

...WESTERN AND NORTH CENTRAL NEBRASKA...

CITY           SKY/WX    TMP DP  RH WIND       PRES   REMARKS
VALENTINE      CLOUDY    31  22  69 NE6       29.97R WCI  25
AINSWORTH      CLOUDY    31  24  77 N3        29.97R
ONEILL         CLOUDY    32  26  79 NW5       30.00R WCI  27
BROKEN BOW     CLOUDY    40  21  46 NE3       29.95R
IMPERIAL       CLEAR     42  12  29 NW9       29.94R
NORTH PLATTE   CLEAR     41  15  35 W6        29.95R
MCCOOK         CLEAR     43  17  35 CALM      29.96S

...EASTERN NEBRASKA...

CITY           SKY/WX    TMP DP  RH WIND       PRES   REMARKS
NORFOLK        CLOUDY    32  24  72 NW5       30.00R WCI  27
SO SIOUX CITY  CLOUDY    36  29  75 NW6       30.01S WCI  31
TEKAMAH        CLOUDY    36  27  69 W6        30.02R WCI  31
COLUMBUS       CLOUDY    36  23  60 NW6       30.01S WCI  31
ALBION         CLOUDY    34  24  66 N3        30.00R
OMAHA EPPLEY   CLOUDY    38  26  62 W5        30.02R WCI  34
OFFUTT AFB     MOCLDY    36  28  73 NW3       30.02R
MILLARD        CLOUDY    37  28  67 W3        30.02R
LINCOLN        CLEAR     39  25  57 N6        30.03R WCI  35
NEBRASKA CITY  PTCLDY    37  23  56 N3        30.01S
BEATRICE       CLEAR     39  26  59 W6        30.01R WCI  35
FALLS CITY     CLEAR     39  25  57 W6        30.02R WCI  35

...NORTHERN KANSAS...

CITY           SKY/WX    TMP DP  RH WIND       PRES   REMARKS
GOODLAND       CLEAR     43   8  23 W7        29.95R
HILL CITY      CLEAR     45  16  31 NW3       29.98S
NORTON         CLEAR     41   9  26 W3        29.96S
PHILLIPSBURG   CLEAR     45  18  33 CALM      29.99S
SMITH CENTER   CLEAR     41  18  38 CALM      29.99S
BELOIT         CLEAR     43  19  39 CALM      30.00S
HAYS           CLEAR     46  17  31 CALM      29.99S
RUSSELL        CLEAR     46  17  31 CALM      29.98S
CONCORDIA      CLEAR     42  19  39 W3        30.01R
SALINA         CLEAR     46  22  38 SE3       30.02R
TOPEKA         CLEAR     43  23  45 CALM      30.03S



USA.gov is the U.S. government's official web portal to all federal, state and local government web resources and services.